Location: Colle Santa Colomba
(42.0333°N, 12.5667°E)
Time: 03:51:51
(UTC+00:00)

SMAP - Pass Details

Date: 25 October 2021
Orbit: 681 x 683 km, 98.1° (Epoch: 28 November)

Event Time Altitude Azimuth Distance (km) Brightness Sun altitude
Rises 16:57:06 0° 179° (S) 3,031 6.5 -8.8°
Reaches altitude 10° 16:59:24 10° 185° (S) 2,121 5.8 -9.3°
Maximum altitude 17:03:54 50° 260° (W) 874 4.1 -10.1°
Drops below altitude 10° 17:08:26 10° 336° (NNW) 2,136 5.8 -10.9°
Sets 17:10:45 0° 342° (NNW) 3,056 6.6 -11.4°
